ZHONGXING-9

Last updated on Mon Jun 22 2026 00:03:03 GMT+0000 (Coordinated Universal Time)

1 33051U 08028A 26172.40841103 -.00000251 00000+0 00000+0 0 9996 2 33051 0.7809 85.3026 0003838 343.5737 80.1354 1.00272275 66083
UTC large
Height (km)
Speed (km/s)
/
Latitude / Longitude
Inclination (degrees)
Orbital Period (minutes)
Azimuth
Elevation
Range (km)
Doppler Factor

Next 0 passes for location: London (51.5072 / 0.1276)

No passes found over London.
ZHONGXING-9